Time,TemperatureF,DewpointF,PressureIn,WindDirection,WindDirectionDegrees,WindSpeedMPH,WindSpeedGustMPH,Humidity,HourlyPrecipIn,Conditions,Clouds,dailyrainin,SolarRadiationWatts/m^2,SoftwareType,DateUTC
2013-04-18 00:01:00,44.1,42.2,30.06,ESE,112,3.0,5.8,93,0.52,RA,SCT,0.00,0.0,WeatherDisplay:10.37,2013-04-18 04:01:00,
2013-04-18 00:02:00,44.2,42.3,30.06,ESE,106,3.8,5.0,93,0.50,RA,SCT,0.00,0.0,WeatherDisplay:10.37,2013-04-18 04:02:00,
2013-04-18 00:03:00,44.2,42.0,30.05,ESE,107,3.2,4.6,92,0.50,RA,SCT,0.00,0.0,WeatherDisplay:10.37,2013-04-18 04:03:00,
2013-04-18 00:08:00,44.3,42.1,30.01,East,89,4.8,5.8,92,0.46,RA,SCT,0.02,0.0,WeatherDisplay:10.37,2013-04-18 04:08:00,
2013-04-18 00:13:00,44.4,42.2,30.03,ESE,110,3.2,6.9,92,0.34,RA,SCT,0.02,0.0,WeatherDisplay:10.37,2013-04-18 04:13:00,
2013-04-18 00:18:00,44.7,42.2,30.02,East,95,2.5,5.0,91,0.27,RA,SCT,0.03,0.0,WeatherDisplay:10.37,2013-04-18 04:18:00,
2013-04-18 00:23:00,44.8,42.3,30.01,ESE,114,2.8,5.8,91,0.26,RA,SCT,0.04,0.0,WeatherDisplay:10.37,2013-04-18 04:23:00,
2013-04-18 00:28:00,44.9,42.4,30.02,ESE,108,1.4,3.5,91,0.26,RA,SCT,0.06,0.0,WeatherDisplay:10.37,2013-04-18 04:28:00,
2013-04-18 00:33:00,44.9,42.4,30.01,East,99,3.1,4.6,91,0.22,RA,SCT,0.07,0.0,WeatherDisplay:10.37,2013-04-18 04:33:00,
2013-04-18 00:38:00,44.8,42.6,30.01,ESE,117,1.4,2.3,92,0.17,RA,SCT,0.07,0.0,WeatherDisplay:10.37,2013-04-18 04:38:00,
2013-04-18 00:43:00,44.8,42.6,30.03,ESE,122,2.9,4.6,92,0.16,RA,SCT,0.08,0.0,WeatherDisplay:10.37,2013-04-18 04:43:00,
2013-04-18 00:48:00,44.8,42.6,30.01,ESE,103,2.1,4.0,92,0.15,RA,SCT,0.09,0.0,WeatherDisplay:10.37,2013-04-18 04:48:00,
2013-04-18 00:53:00,44.7,42.5,29.98,ESE,104,2.6,4.6,92,0.12,RA,SCT,0.10,0.0,WeatherDisplay:10.37,2013-04-18 04:53:00,
2013-04-18 00:58:00,44.7,42.5,29.96,ESE,108,4.0,5.8,92,0.12,RA,SCT,0.10,0.0,WeatherDisplay:10.37,2013-04-18 04:58:00,
2013-04-18 01:03:00,44.8,42.6,29.96,East,91,2.9,3.5,92,0.10,OVC,SCT,0.10,0.0,WeatherDisplay:10.37,2013-04-18 05:03:00,
2013-04-18 01:09:00,45.0,42.8,29.96,ESE,116,0.0,8.1,92,0.08,OVC,SCT,0.10,0.0,WeatherDisplay:10.37,2013-04-18 05:09:00,
2013-04-18 01:14:00,45.0,42.5,29.96,East,100,3.5,5.0,91,0.08,RA,SCT,0.10,0.0,WeatherDisplay:10.37,2013-04-18 05:14:00,
2013-04-18 01:19:00,45.1,42.6,29.97,SE,130,2.0,4.0,91,0.07,RA,SCT,0.10,0.0,WeatherDisplay:10.37,2013-04-18 05:19:00,
2013-04-18 01:24:00,45.1,42.6,29.97,ESE,107,2.2,2.3,91,0.06,OVC,SCT,0.10,0.0,WeatherDisplay:10.37,2013-04-18 05:24:00,
2013-04-18 01:29:00,45.1,42.6,29.96,ESE,107,2.2,3.5,91,0.04,OVC,SCT,0.10,0.0,WeatherDisplay:10.37,2013-04-18 05:29:00,
2013-04-18 01:34:00,45.1,42.9,29.95,ESE,111,1.1,2.3,92,0.03,OVC,SCT,0.10,0.0,WeatherDisplay:10.37,2013-04-18 05:34:00,
2013-04-18 01:39:00,45.1,42.9,29.95,ESE,111,0.7,1.2,92,0.03,OVC,SCT,0.10,0.0,WeatherDisplay:10.37,2013-04-18 05:39:00,
2013-04-18 01:44:00,45.2,43.0,29.95,ESE,111,0.4,2.3,92,0.02,OVC,SCT,0.10,0.0,WeatherDisplay:10.37,2013-04-18 05:44:00,
2013-04-18 01:49:00,45.2,43.0,29.95,SE,128,0.7,2.0,92,0.01,OVC,SCT,0.10,0.0,WeatherDisplay:10.37,2013-04-18 05:49:00,
2013-04-18 01:54:00,45.3,43.1,29.95,ESE,120,0.5,1.2,92,0.00,OVC,SCT,0.10,0.0,WeatherDisplay:10.37,2013-04-18 05:54:00,
2013-04-18 01:59:00,45.4,43.2,29.94,ESE,104,1.6,2.3,92,0.00,OVC,SCT,0.10,0.0,WeatherDisplay:10.37,2013-04-18 05:59:00,
2013-04-18 02:04:00,45.5,43.3,29.94,ESE,103,1.6,3.5,92,0.00,OVC,SCT,0.10,0.0,WeatherDisplay:10.37,2013-04-18 06:04:00,
2013-04-18 02:09:00,45.7,43.5,29.94,SSE,147,1.2,3.5,92,0.00,OVC,SCT,0.10,0.0,WeatherDisplay:10.37,2013-04-18 06:09:00,
2013-04-18 02:14:00,45.8,43.6,29.93,ESE,119,1.7,3.5,92,0.00,OVC,SCT,0.10,0.0,WeatherDisplay:10.37,2013-04-18 06:14:00,
2013-04-18 02:19:00,45.8,43.3,29.93,ESE,117,2.0,4.0,91,0.00,OVC,SCT,0.10,0.0,WeatherDisplay:10.37,2013-04-18 06:19:00,
2013-04-18 02:24:00,45.8,43.3,29.92,ESE,119,2.3,4.6,91,0.00,OVC,SCT,0.10,0.0,WeatherDisplay:10.37,2013-04-18 06:24:00,
2013-04-18 02:29:00,45.8,43.3,29.92,ESE,118,2.0,3.5,91,0.00,OVC,SCT,0.10,0.0,WeatherDisplay:10.37,2013-04-18 06:29:00,
2013-04-18 02:34:00,45.7,43.2,29.92,SE,130,1.5,2.3,91,0.00,OVC,SCT,0.10,0.0,WeatherDisplay:10.37,2013-04-18 06:34:00,
2013-04-18 02:39:00,45.7,43.2,29.91,SE,126,0.8,2.3,91,0.00,OVC,SCT,0.10,0.0,WeatherDisplay:10.37,2013-04-18 06:39:00,
2013-04-18 02:44:00,45.7,43.2,29.91,SE,124,1.2,2.3,91,0.00,OVC,SCT,0.10,0.0,WeatherDisplay:10.37,2013-04-18 06:44:00,
2013-04-18 02:49:00,45.7,43.2,29.91,SE,126,1.5,3.5,91,0.00,OVC,SCT,0.10,0.0,WeatherDisplay:10.37,2013-04-18 06:49:00,
2013-04-18 02:54:00,45.7,43.2,29.91,ESE,121,0.3,2.3,91,0.00,OVC,SCT,0.10,0.0,WeatherDisplay:10.37,2013-04-18 06:54:00,
2013-04-18 02:59:00,45.8,43.3,29.91,SE,126,0.8,3.5,91,0.00,OVC,SCT,0.10,0.0,WeatherDisplay:10.37,2013-04-18 06:59:00,
2013-04-18 03:04:00,45.8,43.3,29.89,ESE,122,1.0,2.3,91,0.00,OVC,SCT,0.10,0.0,WeatherDisplay:10.37,2013-04-18 07:04:00,
2013-04-18 03:09:00,45.8,43.3,29.89,ESE,123,2.2,3.5,91,0.00,OVC,SCT,0.10,0.0,WeatherDisplay:10.37,2013-04-18 07:09:00,
2013-04-18 03:14:00,45.8,43.3,29.89,SE,124,0.8,2.3,91,0.00,OVC,SCT,0.10,0.0,WeatherDisplay:10.37,2013-04-18 07:14:00,
2013-04-18 03:19:00,45.8,43.3,29.89,ESE,110,2.0,4.6,91,0.00,OVC,SCT,0.10,0.0,WeatherDisplay:10.37,2013-04-18 07:19:00,
2013-04-18 03:24:00,45.7,43.2,29.89,ESE,111,0.7,2.0,91,0.00,OVC,SCT,0.10,0.0,WeatherDisplay:10.37,2013-04-18 07:24:00,
2013-04-18 03:29:00,45.8,43.0,29.88,ESE,121,1.1,3.0,90,0.00,OVC,SCT,0.10,0.0,WeatherDisplay:10.37,2013-04-18 07:29:00,
2013-04-18 03:34:00,45.8,43.0,29.88,ESE,121,0.2,1.2,90,0.00,OVC,SCT,0.10,0.0,WeatherDisplay:10.37,2013-04-18 07:34:00,
2013-04-18 03:39:00,45.7,42.9,29.88,ESE,121,0.0,2.3,90,0.00,OVC,SCT,0.10,0.0,WeatherDisplay:10.37,2013-04-18 07:39:00,
2013-04-18 03:44:00,45.7,42.9,29.88,ESE,121,0.3,1.2,90,0.00,OVC,SCT,0.10,0.0,WeatherDisplay:10.37,2013-04-18 07:44:00,
2013-04-18 03:49:00,45.8,43.0,29.87,ESE,121,0.4,1.2,90,0.00,OVC,SCT,0.10,0.0,WeatherDisplay:10.37,2013-04-18 07:49:00,
2013-04-18 03:54:00,45.9,43.1,29.87,ESE,121,0.0,0.0,90,0.00,OVC,SCT,0.10,0.0,WeatherDisplay:10.37,2013-04-18 07:54:00,
2013-04-18 03:59:00,45.9,43.1,29.86,ESE,121,0.2,2.3,90,0.00,OVC,SCT,0.10,0.0,WeatherDisplay:10.37,2013-04-18 07:59:00,
2013-04-18 04:04:00,45.9,43.1,29.86,ESE,121,0.0,1.2,90,0.00,OVC,SCT,0.10,0.0,WeatherDisplay:10.37,2013-04-18 08:04:00,
2013-04-18 04:09:00,45.9,43.1,29.86,ESE,121,0.0,1.2,90,0.00,OVC,SCT,0.10,0.0,WeatherDisplay:10.37,2013-04-18 08:09:00,
2013-04-18 04:14:00,45.9,42.8,29.86,ESE,121,0.0,1.2,89,0.00,OVC,SCT,0.10,0.0,WeatherDisplay:10.37,2013-04-18 08:14:00,
2013-04-18 04:19:00,46.0,43.2,29.85,ESE,121,1.2,2.3,90,0.00,OVC,SCT,0.10,0.0,WeatherDisplay:10.37,2013-04-18 08:19:00,
2013-04-18 04:24:00,46.1,43.0,29.85,ESE,121,1.4,2.3,89,0.00,OVC,SCT,0.10,0.0,WeatherDisplay:10.37,2013-04-18 08:24:00,
2013-04-18 04:29:00,46.3,42.9,29.84,ESE,116,0.7,2.3,88,0.00,OVC,SCT,0.10,0.0,WeatherDisplay:10.37,2013-04-18 08:29:00,
2013-04-18 04:34:00,46.3,42.9,29.84,ESE,121,1.5,3.5,88,0.00,OVC,SCT,0.10,0.0,WeatherDisplay:10.37,2013-04-18 08:34:00,
2013-04-18 04:39:00,46.4,43.0,29.84,SE,125,0.6,2.3,88,0.00,OVC,SCT,0.10,0.0,WeatherDisplay:10.37,2013-04-18 08:39:00,
2013-04-18 04:44:00,46.5,43.1,29.83,SE,126,1.4,2.3,88,0.00,OVC,SCT,0.10,0.0,WeatherDisplay:10.37,2013-04-18 08:44:00,
2013-04-18 04:49:00,46.7,43.3,29.84,ESE,123,0.1,2.3,88,0.00,OVC,SCT,0.10,0.0,WeatherDisplay:10.37,2013-04-18 08:49:00,
2013-04-18 04:54:00,46.7,43.3,29.83,ESE,123,0.2,2.3,88,0.00,OVC,SCT,0.10,0.0,WeatherDisplay:10.37,2013-04-18 08:54:00,
2013-04-18 04:59:00,46.8,43.4,29.83,SE,124,0.1,1.0,88,0.00,OVC,SCT,0.10,0.0,WeatherDisplay:10.37,2013-04-18 08:59:00,
2013-04-18 05:04:00,46.8,43.4,29.82,SE,124,0.3,2.0,88,0.00,OVC,SCT,0.10,0.0,WeatherDisplay:10.37,2013-04-18 09:04:00,
2013-04-18 05:09:00,46.8,43.4,29.82,ESE,123,0.0,0.0,88,0.00,OVC,SCT,0.10,0.0,WeatherDisplay:10.37,2013-04-18 09:09:00,
2013-04-18 05:14:00,46.8,43.4,29.82,SE,124,0.0,0.0,88,0.00,OVC,SCT,0.10,0.0,WeatherDisplay:10.37,2013-04-18 09:14:00,
2013-04-18 05:19:00,46.9,43.8,29.82,ESE,123,0.3,1.2,89,0.00,OVC,SCT,0.10,0.0,WeatherDisplay:10.37,2013-04-18 09:19:00,
2013-04-18 05:24:00,47.0,43.9,29.82,SE,124,0.2,1.2,89,0.00,OVC,SCT,0.10,0.0,WeatherDisplay:10.37,2013-04-18 09:24:00,
2013-04-18 05:29:00,47.1,44.0,29.82,ESE,123,0.4,1.2,89,0.00,OVC,SCT,0.10,0.0,WeatherDisplay:10.37,2013-04-18 09:29:00,
2013-04-18 05:34:00,47.2,44.1,29.82,ESE,123,1.3,2.3,89,0.00,OVC,SCT,0.10,0.0,WeatherDisplay:10.37,2013-04-18 09:34:00,
2013-04-18 05:39:00,47.4,44.6,29.81,ESE,123,1.1,2.3,90,0.00,OVC,SCT,0.10,0.0,WeatherDisplay:10.37,2013-04-18 09:39:00,
2013-04-18 05:44:00,47.6,44.8,29.81,ESE,119,1.5,3.5,90,0.00,OVC,SCT,0.10,0.0,WeatherDisplay:10.37,2013-04-18 09:44:00,
2013-04-18 05:49:00,47.7,44.9,29.80,ESE,117,1.1,2.3,90,0.00,OVC,SCT,0.10,0.0,WeatherDisplay:10.37,2013-04-18 09:49:00,
2013-04-18 05:54:00,47.9,45.1,29.80,SE,138,0.6,2.0,90,0.00,OVC,SCT,0.10,0.0,WeatherDisplay:10.37,2013-04-18 09:54:00,
2013-04-18 05:59:00,48.0,45.5,29.80,ESE,117,0.6,2.3,91,0.00,OVC,SCT,0.10,0.0,WeatherDisplay:10.37,2013-04-18 09:59:00,
2013-04-18 06:04:00,48.1,45.6,29.80,SE,126,1.0,2.3,91,0.00,OVC,SCT,0.10,0.0,WeatherDisplay:10.37,2013-04-18 10:04:00,
2013-04-18 06:09:00,48.2,45.7,29.80,SE,130,1.1,2.0,91,0.00,OVC,SCT,0.10,0.0,WeatherDisplay:10.37,2013-04-18 10:09:00,
2013-04-18 06:14:00,48.3,45.8,29.80,SE,130,1.1,2.3,91,0.00,OVC,SCT,0.10,0.0,WeatherDisplay:10.37,2013-04-18 10:14:00,
2013-04-18 06:19:00,48.5,46.3,29.80,ESE,109,1.7,4.0,92,0.00,OVC,SCT,0.10,0.0,WeatherDisplay:10.37,2013-04-18 10:19:00,
2013-04-18 06:24:00,48.6,46.4,29.79,SE,126,1.0,2.3,92,0.00,OVC,SCT,0.10,0.0,WeatherDisplay:10.37,2013-04-18 10:24:00,
2013-04-18 06:29:00,48.6,46.4,29.79,SE,131,2.2,3.5,92,0.00,OVC,SCT,0.10,0.0,WeatherDisplay:10.37,2013-04-18 10:29:00,
2013-04-18 06:34:00,48.6,46.4,29.79,ESE,122,1.0,2.3,92,0.00,OVC,SCT,0.10,0.0,WeatherDisplay:10.37,2013-04-18 10:34:00,
2013-04-18 06:39:00,48.7,46.8,29.78,SE,132,1.6,3.5,93,0.00,OVC,SCT,0.10,0.0,WeatherDisplay:10.37,2013-04-18 10:39:00,
2013-04-18 06:44:00,48.7,46.5,29.78,ESE,120,1.4,3.0,92,0.00,OVC,SCT,0.10,0.0,WeatherDisplay:10.37,2013-04-18 10:44:00,
2013-04-18 06:49:00,48.6,46.4,29.78,SE,125,0.4,1.2,92,0.00,OVC,SCT,0.10,0.0,WeatherDisplay:10.37,2013-04-18 10:49:00,
2013-04-18 06:54:00,48.5,46.6,29.78,SE,142,0.7,2.3,93,0.00,OVC,SCT,0.10,0.0,WeatherDisplay:10.37,2013-04-18 10:54:00,
2013-04-18 06:59:00,48.5,46.6,29.78,SE,125,1.2,3.5,93,0.00,OVC,SCT,0.10,0.0,WeatherDisplay:10.37,2013-04-18 10:59:00,
2013-04-18 07:04:00,48.5,46.6,29.78,SE,134,1.3,3.5,93,0.01,RA,SCT,0.11,7.0,WeatherDisplay:10.37,2013-04-18 11:04:00,
2013-04-18 07:09:00,48.5,46.6,29.78,South,189,1.4,3.5,93,0.01,RA,SCT,0.11,11.0,WeatherDisplay:10.37,2013-04-18 11:09:00,
2013-04-18 07:14:00,48.6,46.7,29.78,ESE,105,1.0,3.5,93,0.01,OVC,SCT,0.11,16.0,WeatherDisplay:10.37,2013-04-18 11:14:00,
2013-04-18 07:19:00,48.7,46.8,29.78,SSE,161,0.8,2.3,93,0.01,OVC,SCT,0.11,21.0,WeatherDisplay:10.37,2013-04-18 11:19:00,
2013-04-18 07:24:00,48.7,46.8,29.78,ESE,121,1.9,3.5,93,0.01,OVC,SCT,0.11,26.0,WeatherDisplay:10.37,2013-04-18 11:24:00,
2013-04-18 07:29:00,48.9,47.0,29.77,ESE,123,1.0,3.5,93,0.01,OVC,SCT,0.11,33.0,WeatherDisplay:10.37,2013-04-18 11:29:00,
2013-04-18 07:34:00,49.0,47.1,29.77,ESE,123,2.1,3.5,93,0.01,OVC,SCT,0.11,35.0,WeatherDisplay:10.37,2013-04-18 11:34:00,
2013-04-18 07:39:00,49.0,47.1,29.76,SE,128,0.8,2.3,93,0.01,OVC,SCT,0.11,37.0,WeatherDisplay:10.37,2013-04-18 11:39:00,
2013-04-18 07:44:00,49.0,47.1,29.76,ESE,117,2.5,4.0,93,0.01,OVC,SCT,0.11,47.0,WeatherDisplay:10.37,2013-04-18 11:44:00,
2013-04-18 07:49:00,49.2,47.3,29.76,SE,130,0.5,3.5,93,0.01,OVC,SCT,0.11,62.0,WeatherDisplay:10.37,2013-04-18 11:49:00,
2013-04-18 07:54:00,49.4,47.5,29.76,South,176,1.6,3.5,93,0.01,OVC,SCT,0.11,69.0,WeatherDisplay:10.37,2013-04-18 11:54:00,
2013-04-18 07:59:00,49.7,48.0,29.76,SE,130,1.1,2.3,94,0.01,OVC,SCT,0.11,69.0,WeatherDisplay:10.37,2013-04-18 11:59:00,
2013-04-18 08:04:00,50.0,48.1,29.76,SSW,195,1.7,3.5,93,0.00,OVC,SCT,0.11,72.0,WeatherDisplay:10.37,2013-04-18 12:04:00,
2013-04-18 08:10:00,50.3,48.4,29.75,East,101,1.3,3.5,93,0.00,OVC,SCT,0.11,97.0,WeatherDisplay:10.37,2013-04-18 12:10:00,
2013-04-18 08:15:00,50.8,48.8,29.75,ESE,119,0.8,2.3,93,0.00,OVC,SCT,0.11,114.0,WeatherDisplay:10.37,2013-04-18 12:15:00,
2013-04-18 08:20:00,51.4,49.4,29.75,ESE,123,2.4,3.5,93,0.00,OVC,SCT,0.11,118.0,WeatherDisplay:10.37,2013-04-18 12:20:00,
2013-04-18 08:25:00,51.9,49.9,29.75,SE,125,1.2,3.0,93,0.00,OVC,SCT,0.11,104.0,WeatherDisplay:10.37,2013-04-18 12:25:00,
2013-04-18 08:30:00,52.4,50.1,29.75,SE,140,1.5,3.5,92,0.00,OVC,SCT,0.11,111.0,WeatherDisplay:10.37,2013-04-18 12:30:00,
2013-04-18 08:35:00,52.8,50.5,29.75,South,175,0.8,3.5,92,0.00,OVC,SCT,0.11,121.0,WeatherDisplay:10.37,2013-04-18 12:35:00,
2013-04-18 08:40:00,53.3,51.0,29.74,SSE,153,1.5,3.5,92,0.00,OVC,SCT,0.11,121.0,WeatherDisplay:10.37,2013-04-18 12:40:00,
2013-04-18 08:45:00,53.9,51.6,29.74,SSE,159,1.6,5.8,92,0.00,OVC,SCT,0.11,132.0,WeatherDisplay:10.37,2013-04-18 12:45:00,
2013-04-18 08:50:00,54.4,51.8,29.74,SW,219,1.8,3.5,91,0.00,OVC,SCT,0.11,144.0,WeatherDisplay:10.37,2013-04-18 12:50:00,
2013-04-18 08:55:00,55.0,52.4,29.74,South,182,0.8,3.5,91,0.00,OVC,SCT,0.11,123.0,WeatherDisplay:10.37,2013-04-18 12:55:00,
2013-04-18 09:00:00,55.5,52.9,29.74,SSE,159,2.8,3.5,91,0.00,OVC,SCT,0.11,116.0,WeatherDisplay:10.37,2013-04-18 13:00:00,
2013-04-18 09:05:00,56.0,53.1,29.74,SE,132,0.8,2.3,90,0.00,OVC,SCT,0.11,130.0,WeatherDisplay:10.37,2013-04-18 13:05:00,
2013-04-18 09:10:00,56.5,53.6,29.74,South,179,0.9,3.5,90,0.00,OVC,SCT,0.11,113.0,WeatherDisplay:10.37,2013-04-18 13:10:00,
2013-04-18 09:15:00,57.1,54.2,29.73,South,173,1.5,5.8,90,0.00,OVC,SCT,0.11,95.0,WeatherDisplay:10.37,2013-04-18 13:15:00,
2013-04-18 09:20:00,57.6,54.4,29.73,South,190,2.1,4.6,89,0.00,OVC,SCT,0.11,91.0,WeatherDisplay:10.37,2013-04-18 13:20:00,
2013-04-18 09:25:00,58.0,54.8,29.73,South,175,0.4,4.0,89,0.00,OVC,SCT,0.11,107.0,WeatherDisplay:10.37,2013-04-18 13:25:00,
2013-04-18 09:30:00,58.6,55.4,29.72,South,188,0.9,4.6,89,0.00,OVC,SCT,0.11,116.0,WeatherDisplay:10.37,2013-04-18 13:30:00,
2013-04-18 09:35:00,59.3,56.1,29.72,South,175,1.2,3.0,89,0.00,OVC,SCT,0.11,88.0,WeatherDisplay:10.37,2013-04-18 13:35:00,
2013-04-18 09:40:00,60.2,56.9,29.72,SSE,160,0.0,7.0,89,0.00,OVC,SCT,0.11,132.0,WeatherDisplay:10.37,2013-04-18 13:40:00,
2013-04-18 09:45:00,61.3,58.0,29.71,SE,143,1.3,4.0,89,0.00,OVC,SCT,0.11,114.0,WeatherDisplay:10.37,2013-04-18 13:45:00,
2013-04-18 09:50:00,62.6,59.0,29.71,SSW,209,3.2,6.9,88,0.00,OVC,SCT,0.11,292.0,WeatherDisplay:10.37,2013-04-18 13:50:00,
2013-04-18 09:55:00,64.0,59.7,29.71,SE,134,1.9,3.5,86,0.00,OVC,SCT,0.11,139.0,WeatherDisplay:10.37,2013-04-18 13:55:00,
2013-04-18 10:00:00,65.2,60.6,29.71,ESE,120,3.4,9.2,85,0.00,OVC,SCT,0.11,190.0,WeatherDisplay:10.37,2013-04-18 14:00:00,
2013-04-18 10:05:00,66.5,61.5,29.70,ESE,121,2.3,6.9,84,0.00,BKN,SCT,0.11,127.0,WeatherDisplay:10.37,2013-04-18 14:05:00,
2013-04-18 10:10:00,67.6,61.9,29.70,ESE,122,3.7,11.5,82,0.00,BKN,SCT,0.11,141.0,WeatherDisplay:10.37,2013-04-18 14:10:00,
2013-04-18 10:15:00,68.6,62.5,29.69,SSE,163,2.7,6.9,81,0.00,BKN,SCT,0.11,158.0,WeatherDisplay:10.37,2013-04-18 14:15:00,
2013-04-18 10:20:00,69.4,62.6,29.69,SSE,167,3.8,6.9,79,0.00,BKN,SCT,0.11,151.0,WeatherDisplay:10.37,2013-04-18 14:20:00,
2013-04-18 10:25:00,69.8,62.6,29.69,West,263,2.1,9.2,78,0.00,BKN,SCT,0.11,174.0,WeatherDisplay:10.37,2013-04-18 14:25:00,
2013-04-18 10:30:00,70.3,63.1,29.68,ESE,122,2.8,6.9,78,0.00,BKN,SCT,0.11,186.0,WeatherDisplay:10.37,2013-04-18 14:30:00,
2013-04-18 10:35:00,70.8,63.2,29.68,SE,130,3.4,6.0,77,0.00,BKN,SCT,0.11,192.0,WeatherDisplay:10.37,2013-04-18 14:35:00,
2013-04-18 10:40:00,71.3,63.3,29.67,ESE,120,2.5,6.9,76,0.00,BKN,SCT,0.11,232.0,WeatherDisplay:10.37,2013-04-18 14:40:00,
2013-04-18 10:45:00,71.9,63.5,29.67,South,187,3.7,9.2,75,0.00,BKN,SCT,0.11,327.0,WeatherDisplay:10.37,2013-04-18 14:45:00,
2013-04-18 10:50:00,72.2,63.4,29.67,ESE,123,1.6,4.6,74,0.00,BKN,SCT,0.11,487.0,WeatherDisplay:10.37,2013-04-18 14:50:00,
2013-04-18 10:55:00,72.5,63.4,29.67,SE,141,3.5,5.8,73,0.00,BKN,SCT,0.11,504.0,WeatherDisplay:10.37,2013-04-18 14:55:00,
2013-04-18 11:00:00,72.7,63.9,29.66,SSE,152,3.7,5.8,74,0.00,BKN,SCT,0.11,504.0,WeatherDisplay:10.37,2013-04-18 15:00:00,
2013-04-18 11:05:00,73.2,64.0,29.66,WSW,243,5.0,8.1,73,0.00,BKN,SCT,0.11,570.0,WeatherDisplay:10.37,2013-04-18 15:05:00,
2013-04-18 11:10:00,73.8,64.2,29.66,WNW,286,2.8,6.9,72,0.00,BKN,SCT,0.11,570.0,WeatherDisplay:10.37,2013-04-18 15:10:00,
2013-04-18 11:15:00,74.4,64.8,29.66,ESE,117,3.4,9.2,72,0.00,BKN,SCT,0.11,582.0,WeatherDisplay:10.37,2013-04-18 15:15:00,
2013-04-18 11:20:00,74.9,64.9,29.66,South,186,2.0,11.0,71,0.00,BKN,SCT,0.11,605.0,WeatherDisplay:10.37,2013-04-18 15:20:00,
2013-04-18 11:25:00,75.4,64.5,29.65,SE,143,3.6,10.4,69,0.00,BKN,SCT,0.11,596.0,WeatherDisplay:10.37,2013-04-18 15:25:00,
2013-04-18 11:30:00,75.8,64.5,29.66,SSW,205,5.0,8.1,68,0.00,BKN,SCT,0.11,601.0,WeatherDisplay:10.37,2013-04-18 15:30:00,
2013-04-18 11:35:00,75.9,64.6,29.65,West,276,2.6,5.8,68,0.00,BKN,SCT,0.11,461.0,WeatherDisplay:10.37,2013-04-18 15:35:00,
2013-04-18 11:40:00,76.4,64.6,29.65,South,175,3.6,6.0,67,0.00,BKN,SCT,0.11,751.0,WeatherDisplay:10.37,2013-04-18 15:40:00,
2013-04-18 11:45:00,76.9,65.1,29.65,South,185,4.0,10.4,67,0.00,BKN,SCT,0.11,613.0,WeatherDisplay:10.37,2013-04-18 15:45:00,
2013-04-18 11:50:00,77.2,65.4,29.65,NW,311,5.1,11.5,67,0.00,BKN,SCT,0.11,747.0,WeatherDisplay:10.37,2013-04-18 15:50:00,
2013-04-18 11:55:00,77.6,65.3,29.65,SSE,161,4.3,11.0,66,0.00,BKN,SCT,0.11,578.0,WeatherDisplay:10.37,2013-04-18 15:55:00,
2013-04-18 12:00:00,77.5,65.2,29.65,SSW,195,1.3,9.2,66,0.00,BKN,SCT,0.11,568.0,WeatherDisplay:10.37,2013-04-18 16:00:00,
2013-04-18 12:05:00,78.0,65.3,29.65,SSW,196,3.4,12.7,65,0.00,OVC,SCT,0.11,881.0,WeatherDisplay:10.37,2013-04-18 16:05:00,
2013-04-18 12:10:00,78.2,64.6,29.64,SW,225,5.9,11.5,63,0.00,OVC,SCT,0.11,849.0,WeatherDisplay:10.37,2013-04-18 16:10:00,
2013-04-18 12:15:00,78.3,64.7,29.64,WSW,247,5.5,10.0,63,0.00,OVC,SCT,0.11,297.0,WeatherDisplay:10.37,2013-04-18 16:15:00,
2013-04-18 12:20:00,78.3,65.1,29.64,SSW,194,5.5,16.1,64,0.00,OVC,SCT,0.11,679.0,WeatherDisplay:10.37,2013-04-18 16:20:00,
2013-04-18 12:25:00,78.6,64.9,29.64,SW,231,3.2,5.8,63,0.00,OVC,SCT,0.11,867.0,WeatherDisplay:10.37,2013-04-18 16:25:00,
2013-04-18 12:30:00,79.3,66.1,29.63,SE,135,3.7,6.9,64,0.00,OVC,SCT,0.11,875.0,WeatherDisplay:10.37,2013-04-18 16:30:00,
2013-04-18 12:35:00,79.3,64.7,29.63,West,270,3.3,8.1,61,0.00,OVC,SCT,0.11,388.0,WeatherDisplay:10.37,2013-04-18 16:35:00,
2013-04-18 12:40:00,79.1,64.5,29.63,West,280,3.3,11.0,61,0.00,OVC,SCT,0.11,325.0,WeatherDisplay:10.37,2013-04-18 16:40:00,
2013-04-18 12:45:00,79.3,64.2,29.62,SSE,167,3.5,9.2,60,0.00,OVC,SCT,0.11,640.0,WeatherDisplay:10.37,2013-04-18 16:45:00,
2013-04-18 12:50:00,79.3,64.2,29.62,South,184,6.6,11.5,60,0.00,OVC,SCT,0.11,327.0,WeatherDisplay:10.37,2013-04-18 16:50:00,
2013-04-18 12:55:00,79.0,63.9,29.62,South,174,2.6,5.8,60,0.00,OVC,SCT,0.11,165.0,WeatherDisplay:10.37,2013-04-18 16:55:00,
2013-04-18 13:00:00,78.6,63.6,29.62,WSW,237,3.0,11.5,60,0.00,OVC,SCT,0.11,162.0,WeatherDisplay:10.37,2013-04-18 17:00:00,
2013-04-18 13:05:00,78.4,63.4,29.61,South,180,3.6,11.5,60,0.00,OVC,SCT,0.11,148.0,WeatherDisplay:10.37,2013-04-18 17:05:00,
2013-04-18 13:10:00,78.2,63.6,29.62,SSE,157,3.5,5.8,61,0.00,OVC,SCT,0.11,156.0,WeatherDisplay:10.37,2013-04-18 17:10:00,
2013-04-18 13:15:00,78.0,63.5,29.61,SSW,211,3.2,15.0,61,0.00,OVC,SCT,0.11,84.0,WeatherDisplay:10.37,2013-04-18 17:15:00,
2013-04-18 13:20:00,77.9,63.4,29.61,NW,304,5.3,10.4,61,0.00,OVC,SCT,0.11,137.0,WeatherDisplay:10.37,2013-04-18 17:20:00,
2013-04-18 13:25:00,77.9,63.8,29.61,SW,227,1.5,5.8,62,0.00,OVC,SCT,0.11,248.0,WeatherDisplay:10.37,2013-04-18 17:25:00,
2013-04-18 13:30:00,78.4,63.4,29.61,SSE,159,3.4,13.8,60,0.00,OVC,SCT,0.11,316.0,WeatherDisplay:10.37,2013-04-18 17:30:00,
2013-04-18 13:35:00,78.7,63.6,29.60,SSE,148,2.6,6.9,60,0.00,OVC,SCT,0.11,246.0,WeatherDisplay:10.37,2013-04-18 17:35:00,
2013-04-18 13:40:00,78.9,63.8,29.59,SE,140,5.7,9.2,60,0.00,OVC,SCT,0.11,469.0,WeatherDisplay:10.37,2013-04-18 17:40:00,
2013-04-18 13:45:00,79.2,63.1,29.59,ESE,119,6.6,12.7,58,0.00,OVC,SCT,0.11,733.0,WeatherDisplay:10.37,2013-04-18 17:45:00,
2013-04-18 13:50:00,79.3,63.2,29.59,ESE,106,4.2,9.2,58,0.00,OVC,SCT,0.11,318.0,WeatherDisplay:10.37,2013-04-18 17:50:00,
2013-04-18 13:55:00,79.4,63.3,29.58,South,180,4.7,10.4,58,0.00,OVC,SCT,0.11,272.0,WeatherDisplay:10.37,2013-04-18 17:55:00,
2013-04-18 14:00:00,79.2,63.1,29.58,SE,138,4.8,10.4,58,0.00,OVC,SCT,0.11,334.0,WeatherDisplay:10.37,2013-04-18 18:00:00,
2013-04-18 14:05:00,79.3,63.2,29.58,ESE,119,5.4,9.2,58,0.00,OVC,SCT,0.11,580.0,WeatherDisplay:10.37,2013-04-18 18:05:00,
2013-04-18 14:10:00,79.2,63.6,29.59,South,180,5.2,11.5,59,0.00,OVC,SCT,0.11,455.0,WeatherDisplay:10.37,2013-04-18 18:10:00,
2013-04-18 14:15:00,79.3,63.2,29.58,SSE,163,4.8,11.5,58,0.00,OVC,SCT,0.11,336.0,WeatherDisplay:10.37,2013-04-18 18:15:00,
2013-04-18 14:20:00,79.3,63.2,29.58,SSW,212,3.1,6.9,58,0.00,OVC,SCT,0.11,403.0,WeatherDisplay:10.37,2013-04-18 18:20:00,
2013-04-18 14:25:00,79.3,63.2,29.58,SE,125,4.8,10.4,58,0.00,OVC,SCT,0.11,306.0,WeatherDisplay:10.37,2013-04-18 18:25:00,
2013-04-18 14:30:00,79.4,63.3,29.58,ESE,113,7.5,17.3,58,0.00,OVC,SCT,0.11,330.0,WeatherDisplay:10.37,2013-04-18 18:30:00,
2013-04-18 14:35:00,79.6,63.0,29.57,SE,128,7.7,12.7,57,0.00,OVC,SCT,0.11,373.0,WeatherDisplay:10.37,2013-04-18 18:35:00,
2013-04-18 14:40:00,79.8,62.7,29.57,South,191,5.4,15.0,56,0.00,OVC,SCT,0.11,315.0,WeatherDisplay:10.37,2013-04-18 18:40:00,
2013-04-18 14:45:00,79.8,62.7,29.58,SSW,199,6.2,11.5,56,0.00,OVC,SCT,0.11,348.0,WeatherDisplay:10.37,2013-04-18 18:45:00,
2013-04-18 14:50:00,79.6,62.5,29.58,SW,224,5.1,10.4,56,0.00,OVC,SCT,0.11,109.0,WeatherDisplay:10.37,2013-04-18 18:50:00,
2013-04-18 14:55:00,78.2,60.2,29.61,WNW,287,8.0,15.0,54,0.00,OVC,SCT,0.11,19.0,WeatherDisplay:10.37,2013-04-18 18:55:00,
2013-04-18 15:00:00,72.8,59.5,29.63,NNW,340,7.0,13.8,63,0.00,OVC,SCT,0.11,9.0,WeatherDisplay:10.37,2013-04-18 19:00:00,
2013-04-18 15:05:00,68.3,60.4,29.62,West,265,4.4,8.1,76,0.09,RA,SCT,0.20,9.0,WeatherDisplay:10.37,2013-04-18 19:05:00,
2013-04-18 15:10:00,65.4,60.1,29.62,WNW,296,3.3,6.9,83,0.12,RA,SCT,0.23,14.0,WeatherDisplay:10.37,2013-04-18 19:10:00,
2013-04-18 15:15:00,64.6,60.3,29.63,WNW,299,1.4,4.6,86,0.15,RA,SCT,0.27,9.0,WeatherDisplay:10.37,2013-04-18 19:15:00,
2013-04-18 15:20:00,63.9,60.3,29.63,WNW,294,3.4,6.9,88,0.29,RA,SCT,0.40,28.0,WeatherDisplay:10.37,2013-04-18 19:20:00,
2013-04-18 15:25:00,63.4,60.4,29.63,WNW,296,0.5,3.5,90,0.30,RA,SCT,0.41,53.0,WeatherDisplay:10.37,2013-04-18 19:25:00,
2013-04-18 15:30:00,63.2,60.2,29.63,West,266,2.0,5.8,90,0.33,RA,SCT,0.44,30.0,WeatherDisplay:10.37,2013-04-18 19:30:00,
2013-04-18 15:35:00,63.1,60.1,29.63,NW,313,1.7,4.0,90,0.33,RA,SCT,0.44,26.0,WeatherDisplay:10.37,2013-04-18 19:35:00,
2013-04-18 15:40:00,63.1,60.4,29.63,SSE,165,4.5,8.1,91,0.36,RA,SCT,0.47,30.0,WeatherDisplay:10.37,2013-04-18 19:40:00,
2013-04-18 15:45:00,63.1,60.4,29.63,West,273,0.7,4.6,91,0.37,RA,SCT,0.48,58.0,WeatherDisplay:10.37,2013-04-18 19:45:00,
2013-04-18 15:50:00,63.2,60.5,29.62,NNW,346,0.8,2.3,91,0.37,RA,SCT,0.48,176.0,WeatherDisplay:10.37,2013-04-18 19:50:00,
2013-04-18 15:55:00,63.4,61.0,29.62,SSW,200,0.1,4.6,92,0.37,OVC,SCT,0.48,44.0,WeatherDisplay:10.37,2013-04-18 19:55:00,
2013-04-18 16:00:00,63.4,60.7,29.63,WSW,256,1.3,3.5,91,0.37,OVC,SCT,0.48,39.0,WeatherDisplay:10.37,2013-04-18 20:00:00,
2013-04-18 16:05:00,63.4,60.7,29.63,SW,234,1.5,3.5,91,0.28,-RA,SCT,0.48,19.0,WeatherDisplay:10.37,2013-04-18 20:05:00,
2013-04-18 16:10:00,63.3,60.6,29.63,WSW,244,2.3,4.6,91,0.26,-RA,SCT,0.49,46.0,WeatherDisplay:10.37,2013-04-18 20:10:00,
2013-04-18 16:15:00,63.3,60.6,29.63,WNW,284,0.3,5.8,91,0.24,-RA,SCT,0.50,39.0,WeatherDisplay:10.37,2013-04-18 20:15:00,
2013-04-18 16:20:00,63.3,60.3,29.62,SSW,209,0.9,3.5,90,0.10,-RA,SCT,0.50,33.0,WeatherDisplay:10.37,2013-04-18 20:20:00,
2013-04-18 16:25:00,63.2,60.2,29.62,SW,219,0.0,1.2,90,0.09,-RA,SCT,0.50,56.0,WeatherDisplay:10.37,2013-04-18 20:25:00,
2013-04-18 16:30:00,63.2,60.5,29.64,South,169,0.2,1.2,91,0.06,-RA,SCT,0.50,40.0,WeatherDisplay:10.37,2013-04-18 20:30:00,
2013-04-18 16:35:00,63.1,60.4,29.64,SSE,155,0.2,3.5,91,0.07,-RA,SCT,0.51,47.0,WeatherDisplay:10.37,2013-04-18 20:35:00,
2013-04-18 16:40:00,63.1,60.4,29.63,SW,221,0.1,2.3,91,0.04,-RA,SCT,0.51,118.0,WeatherDisplay:10.37,2013-04-18 20:40:00,
2013-04-18 16:45:00,63.1,60.7,29.63,WNW,289,0.3,4.0,92,0.03,-RA,SCT,0.51,42.0,WeatherDisplay:10.37,2013-04-18 20:45:00,
2013-04-18 16:50:00,63.1,60.7,29.63,SE,139,0.1,1.2,92,0.03,-RA,SCT,0.51,69.0,WeatherDisplay:10.37,2013-04-18 20:50:00,
2013-04-18 16:55:00,63.1,60.4,29.63,SSE,155,0.7,4.6,91,0.03,-RA,SCT,0.51,51.0,WeatherDisplay:10.37,2013-04-18 20:55:00,
2013-04-18 17:00:00,63.1,60.4,29.63,WSW,254,0.1,3.5,91,0.03,-RA,SCT,0.51,54.0,WeatherDisplay:10.37,2013-04-18 21:00:00,
2013-04-18 17:05:00,63.1,60.4,29.64,West,275,0.5,3.5,91,0.03,-RA,SCT,0.51,16.0,WeatherDisplay:10.37,2013-04-18 21:05:00,
2013-04-18 17:10:00,63.0,60.3,29.64,WSW,252,0.5,2.3,91,0.02,-RA,SCT,0.51,19.0,WeatherDisplay:10.37,2013-04-18 21:10:00,
2013-04-18 17:15:00,63.1,60.1,29.64,SE,133,2.1,4.6,90,0.01,-RA,SCT,0.51,93.0,WeatherDisplay:10.37,2013-04-18 21:15:00,
2013-04-18 17:20:00,63.2,60.5,29.63,SSW,196,0.0,3.5,91,0.01,-RA,SCT,0.51,79.0,WeatherDisplay:10.37,2013-04-18 21:20:00,
2013-04-18 17:25:00,63.4,60.7,29.63,South,189,0.7,4.0,91,0.01,-RA,SCT,0.51,83.0,WeatherDisplay:10.37,2013-04-18 21:25:00,
2013-04-18 17:30:00,63.4,60.4,29.62,SW,227,0.0,2.3,90,0.01,-RA,SCT,0.51,42.0,WeatherDisplay:10.37,2013-04-18 21:30:00,
2013-04-18 17:35:00,63.5,60.5,29.63,NNW,338,0.7,3.5,90,0.00,-RA,SCT,0.51,37.0,WeatherDisplay:10.37,2013-04-18 21:35:00,
2013-04-18 17:40:00,63.4,60.4,29.62,WNW,284,1.6,3.5,90,0.00,-RA,SCT,0.51,35.0,WeatherDisplay:10.37,2013-04-18 21:40:00,
2013-04-18 17:45:00,63.4,60.4,29.62,WNW,288,0.9,3.5,90,0.00,-RA,SCT,0.51,18.0,WeatherDisplay:10.37,2013-04-18 21:45:00,
2013-04-18 17:50:00,63.4,60.4,29.63,NW,308,1.3,2.3,90,0.00,-RA,SCT,0.51,7.0,WeatherDisplay:10.37,2013-04-18 21:50:00,
2013-04-18 17:55:00,63.3,60.0,29.62,West,266,0.0,1.2,89,0.00,-RA,SCT,0.51,11.0,WeatherDisplay:10.37,2013-04-18 21:55:00,
2013-04-18 18:00:00,63.2,60.2,29.65,West,273,1.6,3.5,90,0.00,-RA,SCT,0.51,0.0,WeatherDisplay:10.37,2013-04-18 22:00:00,
2013-04-18 18:05:00,63.0,60.0,29.64,NW,306,1.0,4.6,90,0.07,RA,SCT,0.58,0.0,WeatherDisplay:10.37,2013-04-18 22:05:00,
2013-04-18 18:10:00,62.7,60.0,29.62,West,262,0.7,2.3,91,0.11,RA,SCT,0.62,7.0,WeatherDisplay:10.37,2013-04-18 22:10:00,
2013-04-18 18:15:00,62.4,60.0,29.63,SW,236,2.6,6.9,92,0.13,RA,SCT,0.64,7.0,WeatherDisplay:10.37,2013-04-18 22:15:00,
2013-04-18 18:20:00,62.2,59.8,29.63,West,260,0.5,1.2,92,0.14,RA,SCT,0.65,5.0,WeatherDisplay:10.37,2013-04-18 22:20:00,
2013-04-18 18:25:00,62.0,60.0,29.63,West,262,1.5,3.5,93,0.19,RA,SCT,0.70,5.0,WeatherDisplay:10.37,2013-04-18 22:25:00,
2013-04-18 18:30:00,61.8,59.8,29.62,West,260,1.8,3.5,93,0.26,RA,SCT,0.77,5.0,WeatherDisplay:10.37,2013-04-18 22:30:00,
2013-04-18 18:35:00,61.7,59.7,29.62,West,281,0.3,2.3,93,0.28,RA,SCT,0.79,5.0,WeatherDisplay:10.37,2013-04-18 22:35:00,
2013-04-18 18:40:00,61.5,59.8,29.61,South,180,0.2,2.3,94,0.32,RA,SCT,0.83,7.0,WeatherDisplay:10.37,2013-04-18 22:40:00,
2013-04-18 18:45:00,61.4,59.7,29.62,SE,142,1.6,3.5,94,0.33,RA,SCT,0.84,7.0,WeatherDisplay:10.37,2013-04-18 22:45:00,
2013-04-18 18:50:00,61.3,59.6,29.62,SW,217,2.6,4.6,94,0.36,RA,SCT,0.87,9.0,WeatherDisplay:10.37,2013-04-18 22:50:00,
2013-04-18 18:55:00,61.2,59.5,29.63,NW,322,3.2,5.8,94,0.37,RA,SCT,0.88,0.0,WeatherDisplay:10.37,2013-04-18 22:55:00,
2013-04-18 19:00:00,61.1,59.4,29.63,NNW,330,1.5,4.6,94,0.40,RA,SCT,0.91,5.0,WeatherDisplay:10.37,2013-04-18 23:00:00,
2013-04-18 19:05:00,61.0,59.3,29.63,SW,217,1.8,3.5,94,0.34,RA,SCT,0.92,5.0,WeatherDisplay:10.37,2013-04-18 23:05:00,
2013-04-18 19:10:00,60.9,59.2,29.63,SSW,209,2.0,3.5,94,0.31,RA,SCT,0.93,7.0,WeatherDisplay:10.37,2013-04-18 23:10:00,
2013-04-18 19:15:00,60.8,59.1,29.62,West,268,1.9,5.0,94,0.31,RA,SCT,0.95,0.0,WeatherDisplay:10.37,2013-04-18 23:15:00,
2013-04-18 19:20:00,60.8,59.1,29.62,South,190,0.6,2.3,94,0.30,RA,SCT,0.95,5.0,WeatherDisplay:10.37,2013-04-18 23:20:00,
2013-04-18 19:25:00,60.7,59.0,29.62,WSW,248,1.5,3.5,94,0.26,RA,SCT,0.96,7.0,WeatherDisplay:10.37,2013-04-18 23:25:00,
2013-04-18 19:30:00,60.7,59.0,29.62,SSW,201,0.6,6.9,94,0.20,RA,SCT,0.97,5.0,WeatherDisplay:10.37,2013-04-18 23:30:00,
2013-04-18 19:35:00,60.6,58.9,29.62,West,260,0.5,4.6,94,0.18,RA,SCT,0.97,12.0,WeatherDisplay:10.37,2013-04-18 23:35:00,
2013-04-18 19:40:00,60.6,58.9,29.61,ESE,119,2.6,5.8,94,0.15,RA,SCT,0.98,9.0,WeatherDisplay:10.37,2013-04-18 23:40:00,
2013-04-18 19:45:00,60.6,58.9,29.61,South,189,1.0,2.3,94,0.14,RA,SCT,0.98,7.0,WeatherDisplay:10.37,2013-04-18 23:45:00,
2013-04-18 19:50:00,60.5,58.8,29.61,SSE,160,0.3,2.3,94,0.11,OVC,SCT,0.98,5.0,WeatherDisplay:10.37,2013-04-18 23:50:00,
2013-04-18 19:55:00,60.4,58.7,29.63,West,279,1.5,3.5,94,0.10,OVC,SCT,0.98,0.0,WeatherDisplay:10.37,2013-04-18 23:55:00,
2013-04-18 20:00:00,60.4,58.7,29.63,WNW,285,1.2,3.5,94,0.08,RA,SCT,0.99,0.0,WeatherDisplay:10.37,2013-04-19 00:00:00,
2013-04-18 20:05:00,60.4,58.7,29.63,WNW,291,3.5,6.9,94,0.07,-RA,SCT,0.99,0.0,WeatherDisplay:10.37,2013-04-19 00:05:00,
2013-04-18 20:10:00,60.3,58.6,29.62,WSW,244,0.7,3.5,94,0.06,-RA,SCT,0.99,0.0,WeatherDisplay:10.37,2013-04-19 00:10:00,
2013-04-18 20:15:00,60.3,58.6,29.62,SSW,196,0.2,4.6,94,0.05,-RA,SCT,1.00,0.0,WeatherDisplay:10.37,2013-04-19 00:15:00,
2013-04-18 20:20:00,60.2,58.2,29.62,West,263,1.3,4.6,93,0.05,-RA,SCT,1.00,0.0,WeatherDisplay:10.37,2013-04-19 00:20:00,
2013-04-18 20:25:00,60.2,58.2,29.62,WSW,248,0.1,2.3,93,0.04,-RA,SCT,1.00,0.0,WeatherDisplay:10.37,2013-04-19 00:25:00,
2013-04-18 20:30:00,60.2,58.2,29.62,West,261,1.3,3.5,93,0.03,-RA,SCT,1.00,0.0,WeatherDisplay:10.37,2013-04-19 00:30:00,
2013-04-18 20:35:00,60.1,58.1,29.63,West,277,0.5,2.3,93,0.03,-RA,SCT,1.00,0.0,WeatherDisplay:10.37,2013-04-19 00:35:00,
2013-04-18 20:40:00,60.0,58.0,29.63,WNW,293,2.1,3.5,93,0.02,-RA,SCT,1.00,0.0,WeatherDisplay:10.37,2013-04-19 00:40:00,
2013-04-18 20:45:00,60.1,58.1,29.63,SSE,167,0.1,2.3,93,0.02,-RA,SCT,1.00,0.0,WeatherDisplay:10.37,2013-04-19 00:45:00,
2013-04-18 20:50:00,60.1,58.1,29.62,West,281,0.8,3.5,93,0.03,-RA,SCT,1.01,0.0,WeatherDisplay:10.37,2013-04-19 00:50:00,
2013-04-18 20:55:00,60.1,58.1,29.62,West,278,0.5,3.5,93,0.03,-RA,SCT,1.01,0.0,WeatherDisplay:10.37,2013-04-19 00:55:00,
2013-04-18 21:00:00,60.0,58.0,29.63,South,185,0.7,3.5,93,0.02,-RA,SCT,1.01,0.0,WeatherDisplay:10.37,2013-04-19 01:00:00,
2013-04-18 21:05:00,60.0,58.0,29.63,NW,321,1.0,3.5,93,0.02,-RA,SCT,1.01,0.0,WeatherDisplay:10.37,2013-04-19 01:05:00,
2013-04-18 21:10:00,60.0,58.0,29.64,SW,232,0.8,3.5,93,0.02,-RA,SCT,1.01,0.0,WeatherDisplay:10.37,2013-04-19 01:10:00,
2013-04-18 21:15:00,60.0,58.0,29.64,West,273,2.4,5.0,93,0.01,-RA,SCT,1.01,0.0,WeatherDisplay:10.37,2013-04-19 01:15:00,
2013-04-18 21:20:00,60.0,58.0,29.64,SW,232,2.5,4.6,93,0.02,-RA,SCT,1.02,0.0,WeatherDisplay:10.37,2013-04-19 01:20:00,
2013-04-18 21:25:00,60.0,58.3,29.65,SE,125,1.6,3.5,94,0.02,-RA,SCT,1.02,0.0,WeatherDisplay:10.37,2013-04-19 01:25:00,
2013-04-18 21:30:00,59.9,58.2,29.64,WSW,250,1.9,5.0,94,0.02,-RA,SCT,1.02,0.0,WeatherDisplay:10.37,2013-04-19 01:30:00,
2013-04-18 21:35:00,59.9,58.2,29.64,SW,229,0.1,1.2,94,0.03,-RA,SCT,1.03,0.0,WeatherDisplay:10.37,2013-04-19 01:35:00,
2013-04-18 21:40:00,59.8,58.1,29.65,WSW,246,1.6,4.6,94,0.03,-RA,SCT,1.03,0.0,WeatherDisplay:10.37,2013-04-19 01:40:00,
2013-04-18 21:45:00,59.8,58.1,29.66,SSE,159,1.5,6.0,94,0.03,-RA,SCT,1.03,0.0,WeatherDisplay:10.37,2013-04-19 01:45:00,
2013-04-18 21:50:00,59.7,58.0,29.66,SSE,148,0.4,3.5,94,0.02,-RA,SCT,1.03,0.0,WeatherDisplay:10.37,2013-04-19 01:50:00,
2013-04-18 21:55:00,59.7,58.0,29.64,West,265,0.7,5.0,94,0.03,-RA,SCT,1.04,0.0,WeatherDisplay:10.37,2013-04-19 01:55:00,
2013-04-18 22:00:00,59.7,58.0,29.64,SSW,194,2.1,4.6,94,0.03,-RA,SCT,1.04,0.0,WeatherDisplay:10.37,2013-04-19 02:00:00,
2013-04-18 22:05:00,59.6,57.9,29.64,WSW,244,1.2,3.5,94,0.03,OVC,SCT,1.04,0.0,WeatherDisplay:10.37,2013-04-19 02:05:00,
2013-04-18 22:10:00,59.6,57.9,29.65,SW,225,0.7,3.5,94,0.03,OVC,SCT,1.04,0.0,WeatherDisplay:10.37,2013-04-19 02:10:00,
2013-04-18 22:15:00,59.5,57.8,29.64,WSW,241,1.9,4.6,94,0.03,OVC,SCT,1.04,0.0,WeatherDisplay:10.37,2013-04-19 02:15:00,
2013-04-18 22:20:00,59.5,57.8,29.64,SW,225,0.8,3.5,94,0.02,OVC,SCT,1.04,0.0,WeatherDisplay:10.37,2013-04-19 02:20:00,
2013-04-18 22:25:00,59.4,57.7,29.64,WNW,285,0.2,4.6,94,0.02,OVC,SCT,1.04,0.0,WeatherDisplay:10.37,2013-04-19 02:25:00,
2013-04-18 22:30:00,59.4,57.7,29.63,SW,215,1.1,3.5,94,0.02,OVC,SCT,1.04,0.0,WeatherDisplay:10.37,2013-04-19 02:30:00,
2013-04-18 22:35:00,59.3,57.6,29.63,SW,232,0.4,2.3,94,0.01,OVC,SCT,1.04,0.0,WeatherDisplay:10.37,2013-04-19 02:35:00,
2013-04-18 22:40:00,59.3,57.6,29.63,WSW,242,0.3,2.3,94,0.01,OVC,SCT,1.04,0.0,WeatherDisplay:10.37,2013-04-19 02:40:00,
2013-04-18 22:45:00,59.2,57.8,29.62,SSE,147,0.2,1.2,95,0.01,OVC,SCT,1.04,0.0,WeatherDisplay:10.37,2013-04-19 02:45:00,
2013-04-18 22:50:00,59.2,57.8,29.63,SE,128,0.8,2.3,95,0.01,OVC,SCT,1.04,0.0,WeatherDisplay:10.37,2013-04-19 02:50:00,
2013-04-18 22:55:00,59.1,57.7,29.62,WSW,249,0.1,1.2,95,0.00,OVC,SCT,1.04,0.0,WeatherDisplay:10.37,2013-04-19 02:55:00,
2013-04-18 23:00:00,59.1,57.7,29.61,SW,218,0.0,0.0,95,0.00,OVC,SCT,1.04,0.0,WeatherDisplay:10.37,2013-04-19 03:00:00,
2013-04-18 23:05:00,59.1,57.7,29.60,SW,232,0.2,1.2,95,0.00,OVC,SCT,1.04,0.0,WeatherDisplay:10.37,2013-04-19 03:05:00,
2013-04-18 23:10:00,59.0,57.6,29.60,SW,232,0.0,0.0,95,0.00,OVC,SCT,1.04,0.0,WeatherDisplay:10.37,2013-04-19 03:10:00,
2013-04-18 23:15:00,58.9,57.5,29.60,NNW,330,0.9,2.3,95,0.00,OVC,SCT,1.04,0.0,WeatherDisplay:10.37,2013-04-19 03:15:00,
2013-04-18 23:20:00,58.9,57.5,29.59,NNW,330,0.0,0.0,95,0.00,OVC,SCT,1.04,0.0,WeatherDisplay:10.37,2013-04-19 03:20:00,
2013-04-18 23:25:00,58.9,57.5,29.59,NNW,330,0.0,0.0,95,0.00,OVC,SCT,1.04,0.0,WeatherDisplay:10.37,2013-04-19 03:25:00,
2013-04-18 23:30:00,58.8,57.4,29.59,NNW,330,0.0,1.2,95,0.00,OVC,SCT,1.04,0.0,WeatherDisplay:10.37,2013-04-19 03:30:00,
2013-04-18 23:35:00,58.8,57.4,29.58,NNW,330,0.0,0.0,95,0.00,OVC,SCT,1.04,0.0,WeatherDisplay:10.37,2013-04-19 03:35:00,
2013-04-18 23:40:00,58.7,57.3,29.57,NNW,330,0.0,0.0,95,0.00,OVC,SCT,1.04,0.0,WeatherDisplay:10.37,2013-04-19 03:40:00,
2013-04-18 23:45:00,58.7,57.6,29.56,NNW,332,0.0,0.0,96,0.00,OVC,SCT,1.04,0.0,WeatherDisplay:10.37,2013-04-19 03:45:00,
2013-04-18 23:50:00,58.7,57.6,29.56,SSE,163,0.4,2.0,96,0.00,OVC,SCT,1.04,0.0,WeatherDisplay:10.37,2013-04-19 03:50:00,
2013-04-18 23:55:00,58.6,57.5,29.57,SE,146,0.0,1.2,96,0.01,RA,SCT,1.05,0.0,WeatherDisplay:10.37,2013-04-19 03:55:00,